{"data":{"norad_id":47377,"epoch":"2026-05-25T02:09:53.406144Z","epoch_age_seconds":77511,"freshness":"FRESH","line1":"1 47377U 21005AE  26145.09020146  .00007281  00000+0  24605-3 0  9993","line2":"2 47377  53.1599  70.9473 0001201  95.2754 264.8384 15.31715839294674","mean_motion":15.31715839,"eccentricity":0.0001201,"inclination_deg":53.1599,"raan_deg":70.9473,"arg_perigee_deg":95.2754,"mean_anomaly_deg":264.8384,"bstar":0.00024605,"rev_number":29467,"period_min":94.012215799774,"perigee_km":469.87023594108,"apogee_km":471.51532485433,"semimajor_km":6848.8297803977,"source":"CELESTRAK","updated_at":"2026-05-25T13:38:16.527836Z"}}